This is the latest recevied weather packets stored in our database for station/object WC4PEM-11. If no packets are shown the sender has not sent any weather packets the latest 10 day(s).
| Time | Temp. | Humidity | Pressure | Rain* | Wind** | Luminosity | Snow |
|---|---|---|---|---|---|---|---|
| 1787684601 | 32.22° C | 57% | 1015.8 hPa | 0 mm | - | - | - |
| 1787684401 | 32.78° C | 56% | 1015.9 hPa | 0 mm | - | - | - |
| 1787684301 | 32.78° C | 56% | 1015.9 hPa | 0 mm | - | - | - |
| 1787684001 | 32.78° C | 56% | 1015.9 hPa | 0 mm | - | - | - |
| 1787683701 | 32.78° C | 56% | 1016 hPa | 0 mm | - | - | - |
| 1787683401 | 33.33° C | 54% | 1016 hPa | 0 mm | - | - | - |
| 1787683101 | 33.33° C | 56% | 1016.1 hPa | 0 mm | - | - | - |
| 1787682801 | 33.33° C | 55% | 1016.2 hPa | 0 mm | - | - | - |
| 1787682501 | 33.33° C | 53% | 1016.2 hPa | 0 mm | - | - | - |
| 1787682201 | 33.33° C | 52% | 1016.3 hPa | 0 mm | - | - | - |
| 1787681901 | 33.33° C | 53% | 1016.4 hPa | 0 mm | - | - | - |
| 1787681750 | 32.78° C | 58% | 1016.4 hPa | 0 mm | - | - | - |
| 1787681601 | 32.78° C | 58% | 1016.4 hPa | 0 mm | - | - | - |
| 1787681301 | 32.78° C | 58% | 1016.6 hPa | 0 mm | - | - | - |
| 1787681001 | 32.78° C | 59% | 1016.5 hPa | 0 mm | - | - | - |
| 1787680807 | 32.78° C | 62% | 1016.8 hPa | 0 mm | - | - | - |
| 1787680701 | 32.78° C | 62% | 1016.8 hPa | 0 mm | - | - | - |
| 1787680401 | 32.78° C | 62% | 1016.7 hPa | 0 mm | - | - | - |
| 1787680101 | 32.78° C | 61% | 1016.9 hPa | 0 mm | - | - | - |
| 1787679801 | 32.78° C | 61% | 1016.9 hPa | 0 mm | - | - | - |
| 1787679501 | 32.78° C | 62% | 1016.9 hPa | 0 mm | - | - | - |
| 1787679305 | 32.78° C | 60% | 1017.1 hPa | 0 mm | - | - | - |
| 1787679201 | 32.78° C | 60% | 1017.1 hPa | 0 mm | - | - | - |
| 1787678901 | 32.78° C | 62% | 1017 hPa | 0 mm | - | - | - |
| 1787678601 | 32.78° C | 61% | 1017.1 hPa | 0 mm | - | - | - |
* Rain latest hour (hover to see other rain measurements)
** Current wind speed in m/s (hover to see current wind gust speed)